Location: Bijele Vode
(45.2833°N, 16.2000°E)
Time: 19:58:16
(UTC+00:00)

Cosmos 2084 Rocket - Pass Details

Date: 18 September 2020
Orbit: 545 x 635 km, 62.8° (Epoch: 27 October)

Event Time Altitude Azimuth Distance (km) Brightness Sun altitude
Rises 17:31:41 0° 322° (NW) 2,853 7.8 -6.4°
Reaches altitude 10° 17:33:56 10° 324° (NW) 1,961 6.8 -6.8°
Maximum altitude 17:38:23 73° 50° (NE) 648 3.6 -7.6°
Drops below altitude 10° 17:42:55 10° 135° (SE) 1,996 5.7 -8.4°
Enters shadow 17:43:54 - 136° (SE) 2,384 6.1 -8.5°
